This is the latest recevied weather packets stored in our database for station/object EB1BCG-1. If no packets are shown the sender has not sent any weather packets the latest 10 day(s).
| Time | Temp. | Humidity | Pressure | Rain* | Wind** | Luminosity | Snow |
|---|---|---|---|---|---|---|---|
| 1777930181 | 8.89° C | 99% | 1013.7 hPa | 3.05 mm | 0 m/s | - | - |
| 1777929641 | 8.89° C | 99% | 1013.5 hPa | 0 mm | 0 m/s | - | - |
| 1777929033 | 8.89° C | 99% | 1012.6 hPa | 0 mm | 0 m/s | - | - |
| 1777928433 | 8.89° C | 99% | 1012.4 hPa | 0 mm | 0 m/s | - | - |
| 1777927819 | 8.89° C | 97% | 1012.3 hPa | 0 mm | 0 m/s | - | - |
| 1777927212 | 8.89° C | 93% | 1012.1 hPa | 0 mm | 0 m/s | - | - |
| 1777926608 | 8.89° C | 93% | 1012.2 hPa | 0 mm | 0 m/s | - | - |
| 1777925998 | 8.89° C | 92% | 1012 hPa | 0 mm | 0 m/s | - | - |
| 1777925391 | 9.44° C | 92% | 1012 hPa | 0 mm | 0 m/s | - | - |
| 1777924788 | 10° C | 91% | 1011.9 hPa | 0 mm | 0 m/s | - | - |
| 1777924178 | 10° C | 95% | 1011.7 hPa | 0 mm | 0 m/s | - | - |
| 1777923570 | 10° C | 95% | 1011.5 hPa | 0 mm | 0 m/s | - | - |
| 1777922963 | 10° C | 92% | 1011.4 hPa | 0 mm | 0 m/s | - | - |
| 1777922356 | 10° C | 88% | 1011.4 hPa | 0 mm | 0 m/s | - | - |
| 1777921749 | 10° C | 85% | 1011.3 hPa | 0 mm | 0 m/s | - | - |
| 1777921142 | 10.56° C | 82% | 1011.3 hPa | 0 mm | 0 m/s | - | - |
| 1777920535 | 10.56° C | 78% | 1011.2 hPa | 0 mm | 0 m/s | - | - |
| 1777919928 | 11.11° C | 77% | 1011 hPa | 0 mm | 0 m/s | - | - |
| 1777919322 | 11.67° C | 73% | 1011 hPa | 0 mm | 0 m/s | - | - |
| 1777918716 | 12.22° C | 72% | 1010.9 hPa | 0 mm | 0 m/s | - | - |
| 1777918109 | 12.22° C | 74% | 1010.8 hPa | 0 mm | 0 m/s | - | - |
| 1777917501 | 12.78° C | 70% | 1010.9 hPa | 0 mm | 0 m/s | - | - |
| 1777916895 | 12.22° C | 64% | 1010.9 hPa | 0 mm | 0 m/s | - | - |
| 1777916288 | 12.78° C | 66% | 1010.9 hPa | 0 mm | 0 m/s | - | - |
| 1777915681 | 13.33° C | 62% | 1011 hPa | 0 mm | 0 m/s | - | - |
* Rain latest hour (hover to see other rain measurements)
** Current wind speed in m/s (hover to see current wind gust speed)